Weather History for Plant City, FL

Change the Weather History Date:

Saturday, January 11, 2014

  Actual Average Record
Temperature  
Mean Temperature 77 °F -  
Max Temperature 86 °F 72 °F 86 °F (2014)
Min Temperature 66 °F 49 °F 25 °F (1959)
Cooling Degree Days 12    
Growing Degree Days 27 (Base 50)    
Moisture  
Dew Point 65 °F    
Average Humidity 59    
Maximum Humidity 100    
Minimum Humidity 43    
Precipitation  
Precipitation 0.09 in - - ()
Sea Level Pressure  
Sea Level Pressure 30.05 in    
Wind  
Wind Speed 9 mph (SSW)    
Max Wind Speed 20 mph    
Max Gust Speed 31 mph    
Visibility 9 miles    
Events Rain    
Averages and records for this station are not official NWS values.
T = Trace of Precipitation, MM = Missing Value Source: NWS Daily Summary

Daily Weather History Graph

Daily Weather History Graph

Search for Another Location

Airport:

Trip Planner

Search our weather history database for the weather conditions in past years. The results will help you decide how hot, cold, wet, or windy it might be!

Date:

Astronomy

Jan. 11, 2014 Rise Set
Actual Time 7:21 AM EST 5:52 PM EST
Civil Twilight 6:56 AM EST 6:17 PM EST
Nautical Twilight 6:27 AM EST 6:46 PM EST
Astronomical Twilight 5:58 AM EST 7:14 PM EST
Moon 2:31 PM EST (1/11) 3:29 AM EST (1/11)
Length of Visible Light 11h 21m
Length of Day
10h 30m
Waxing Gibbous, 83% of the Moon is Illuminated
Jan 11
Waxing Gibbous
Jan 15
Full
Jan 24
Last Quarter
Jan 30
New
Feb 6
First Quarter

Hourly Weather History & Observations

Time (EST) Temp. Heat Index Dew Point Humidity Pressure Visibility Wind Dir Wind Speed Gust Speed Precip Events Conditions
12:15 AM 71.6 °F - - N/A% 30.11 in 10.0 mi ESE 8.1 mph - N/A   Mostly Cloudy
12:35 AM 71.6 °F - - N/A% 30.10 in 10.0 mi SE 4.6 mph - N/A   Mostly Cloudy
12:55 AM 71.6 °F - - N/A% 30.10 in 10.0 mi SE 4.6 mph - N/A   Scattered Clouds
1:15 AM 71.6 °F - - N/A% 30.10 in 10.0 mi SE 5.8 mph - N/A   Scattered Clouds
1:35 AM 71.6 °F - - N/A% 30.09 in 7.0 mi SE 4.6 mph - N/A   Scattered Clouds
1:55 AM 71.6 °F - - N/A% 30.09 in 10.0 mi SSE 5.8 mph - N/A   Scattered Clouds
2:15 AM 71.6 °F - - N/A% 30.09 in 10.0 mi SE 5.8 mph - N/A   Clear
2:35 AM 71.6 °F - - N/A% 30.08 in 10.0 mi SSE 4.6 mph - N/A   Scattered Clouds
2:55 AM 71.6 °F - - N/A% 30.07 in 7.0 mi SE 4.6 mph - N/A   Mostly Cloudy
3:15 AM 71.6 °F - - N/A% 30.07 in 7.0 mi SSE 4.6 mph - N/A   Mostly Cloudy
3:35 AM 71.6 °F - - N/A% 30.07 in 7.0 mi SSE 5.8 mph - N/A   Scattered Clouds
3:55 AM 71.6 °F - - N/A% 30.07 in 7.0 mi SSE 5.8 mph - N/A   Mostly Cloudy
4:15 AM 71.6 °F - - N/A% 30.07 in 7.0 mi SSE 5.8 mph - N/A   Overcast
4:35 AM 71.6 °F - - N/A% 30.06 in 7.0 mi SSE 4.6 mph - N/A   Overcast
4:55 AM 71.6 °F - - N/A% 30.07 in 5.0 mi SSE 5.8 mph - N/A   Haze
5:15 AM 71.6 °F - - N/A% 30.07 in 5.0 mi South 5.8 mph - N/A   Haze
5:35 AM 71.6 °F - - N/A% 30.07 in 7.0 mi South 6.9 mph - N/A   Overcast
5:55 AM 71.6 °F - - N/A% 30.07 in 7.0 mi SSE 5.8 mph - N/A   Overcast
6:15 AM 71.6 °F - - N/A% 30.06 in 10.0 mi South 9.2 mph - N/A   Overcast
6:35 AM 71.6 °F - - N/A% 30.06 in 10.0 mi South 8.1 mph - N/A   Overcast
6:55 AM 71.6 °F - - N/A% 30.06 in 10.0 mi South 6.9 mph - N/A   Overcast
7:15 AM 71.6 °F - - N/A% 30.07 in 10.0 mi South 6.9 mph - N/A   Overcast
7:35 AM 71.6 °F - - N/A% 30.07 in 10.0 mi South 9.2 mph - N/A   Overcast
7:55 AM 73.4 °F - - N/A% 30.08 in 10.0 mi South 9.2 mph - N/A   Overcast
8:15 AM 73.4 °F - - N/A% 30.09 in 10.0 mi South 9.2 mph - N/A   Overcast
8:35 AM 73.4 °F - - N/A% 30.10 in 10.0 mi South 9.2 mph - N/A   Overcast
8:55 AM 73.4 °F - - N/A% 30.10 in 10.0 mi South 11.5 mph 17.3 mph N/A   Overcast
9:15 AM 73.4 °F - - N/A% 30.11 in 10.0 mi South 12.7 mph 17.3 mph N/A   Overcast
9:35 AM 75.2 °F - - N/A% 30.11 in 10.0 mi South 10.4 mph - N/A   Overcast
9:55 AM 75.2 °F - - N/A% 30.11 in 10.0 mi South 12.7 mph 18.4 mph N/A   Overcast
10:15 AM 77.0 °F - - N/A% 30.11 in 10.0 mi South 9.2 mph 16.1 mph N/A   Overcast
10:35 AM 78.8 °F - - N/A% 30.11 in 10.0 mi SSW 10.4 mph 18.4 mph N/A   Overcast
10:55 AM 78.8 °F - - N/A% 30.10 in 10.0 mi SSW 12.7 mph 17.3 mph N/A   Overcast
11:15 AM 80.6 °F 83.9 °F 69.8 °F 70% 30.09 in 10.0 mi SSW 16.1 mph 21.9 mph N/A   Mostly Cloudy
11:35 AM 82.4 °F 85.4 °F 68.0 °F 62% 30.07 in 10.0 mi SSW 15.0 mph 25.3 mph N/A   Scattered Clouds
11:55 AM 82.4 °F 84.6 °F 66.2 °F 58% 30.06 in 10.0 mi SSW 16.1 mph - N/A   Scattered Clouds
12:15 PM 84.2 °F 85.6 °F 64.4 °F 51% 30.04 in 10.0 mi SSW 13.8 mph 25.3 mph N/A   Scattered Clouds
12:35 PM 84.2 °F 85.6 °F 64.4 °F 51% 30.03 in 10.0 mi SW 13.8 mph 17.3 mph N/A   Scattered Clouds
12:55 PM 84.2 °F 85.0 °F 62.6 °F 48% 30.02 in 10.0 mi SSW 13.8 mph 19.6 mph N/A   Scattered Clouds
1:15 PM 86.0 °F 86.6 °F 62.6 °F 45% 30.00 in 10.0 mi SSW 13.8 mph 21.9 mph N/A   Scattered Clouds
1:35 PM 86.0 °F 86.6 °F 62.6 °F 45% 29.99 in 10.0 mi SSW 16.1 mph 26.5 mph N/A   Mostly Cloudy
1:55 PM 86.0 °F 86.6 °F 62.6 °F 45% 29.99 in 10.0 mi SW 18.4 mph 26.5 mph N/A   Mostly Cloudy
2:15 PM 84.2 °F 85.0 °F 62.6 °F 48% 29.98 in 10.0 mi SW 13.8 mph 24.2 mph N/A   Mostly Cloudy
2:35 PM 84.2 °F 84.4 °F 60.8 °F 45% 29.97 in 10.0 mi SSW 17.3 mph 31.1 mph N/A   Mostly Cloudy
2:55 PM 86.0 °F 86.1 °F 60.8 °F 43% 29.98 in 10.0 mi SW 18.4 mph 27.6 mph N/A   Scattered Clouds
3:15 PM 84.2 °F 84.4 °F 60.8 °F 45% 29.97 in 10.0 mi SW 19.6 mph 28.8 mph N/A   Scattered Clouds
3:35 PM 84.2 °F 85.6 °F 64.4 °F 51% 29.97 in 10.0 mi SW 17.3 mph 24.2 mph N/A   Scattered Clouds
3:55 PM 82.4 °F 83.9 °F 64.4 °F 54% 29.97 in 10.0 mi SSW 18.4 mph 27.6 mph N/A   Mostly Cloudy
4:15 PM 82.4 °F 84.6 °F 66.2 °F 58% 29.98 in 10.0 mi SW 17.3 mph 25.3 mph N/A   Mostly Cloudy
4:35 PM 82.4 °F 84.6 °F 66.2 °F 58% 29.98 in 10.0 mi SSW 12.7 mph - N/A   Mostly Cloudy
4:55 PM 80.6 °F 82.7 °F 66.2 °F 61% 29.97 in 10.0 mi SSW 15.0 mph 20.7 mph N/A   Scattered Clouds
5:15 PM 78.8 °F - 66.2 °F 65% 29.98 in 10.0 mi SW 17.3 mph 26.5 mph N/A   Mostly Cloudy
5:35 PM 78.8 °F - 66.2 °F 65% 29.98 in 10.0 mi SSW 13.8 mph 20.7 mph N/A   Mostly Cloudy
5:55 PM 77.0 °F - 66.2 °F 69% 29.98 in 10.0 mi SSW 9.2 mph 18.4 mph N/A   Scattered Clouds
6:15 PM 77.0 °F - 68.0 °F 74% 29.98 in 10.0 mi SW 13.8 mph 20.7 mph N/A   Mostly Cloudy
6:35 PM 77.0 °F - 68.0 °F 74% 29.99 in 10.0 mi SW 12.7 mph 18.4 mph N/A Rain Light Rain
6:55 PM 75.2 °F - 71.6 °F 89% 29.99 in 10.0 mi SSW 10.4 mph 16.1 mph N/A Rain Light Rain
7:15 PM 75.2 °F - 75.2 °F 100% 30.01 in 3.0 mi SW 11.5 mph 23.0 mph N/A Rain Heavy Rain
7:35 PM 75.2 °F - - N/A% 30.01 in 10.0 mi SSW 10.4 mph 23.0 mph N/A   Overcast
7:55 PM 73.4 °F - - N/A% 30.02 in 5.0 mi SSW 16.1 mph 25.3 mph N/A Rain Heavy Rain
8:15 PM 71.6 °F - - N/A% 30.03 in 7.0 mi WSW 18.4 mph 24.2 mph 0.01 in Rain Rain
8:35 PM 71.6 °F - - N/A% 30.04 in 10.0 mi WSW 10.4 mph 20.7 mph 0.01 in   Overcast
8:55 PM 69.8 °F - - N/A% 30.02 in 7.0 mi WSW 9.2 mph - 0.03 in   Overcast
9:15 PM 69.8 °F - - N/A% 30.04 in 7.0 mi WSW 8.1 mph - 0.01 in   Overcast
9:35 PM 69.8 °F - - N/A% 30.04 in 7.0 mi SW 8.1 mph - 0.02 in   Mostly Cloudy
9:55 PM 69.8 °F - - N/A% 30.05 in 7.0 mi WSW 5.8 mph - 0.02 in   Scattered Clouds
10:15 PM 68.0 °F - - N/A% 30.04 in 10.0 mi SW 3.5 mph - N/A   Scattered Clouds
10:35 PM 68.0 °F - - N/A% 30.04 in 10.0 mi SW 3.5 mph - 0.01 in   Scattered Clouds
10:55 PM 68.0 °F - - N/A% 30.05 in 7.0 mi SW 5.8 mph - 0.02 in   Clear
11:15 PM 68.0 °F - - N/A% 30.04 in 7.0 mi SW 5.8 mph - 0.01 in   Clear
11:35 PM 68.0 °F - - N/A% 30.04 in 7.0 mi SW 5.8 mph - 0.01 in   Clear
11:55 PM 66.2 °F - - N/A% 30.04 in 7.0 mi SW 5.8 mph - 0.02 in   Clear